sat.trackr.live / text

‹ back to catalog

STARLINK-4439

NORAD 53498 · 2022-099AK

PAYLOAD ACTIVE UNKNOWN

§ Identity

Operator
Country
US
Launch date
2022-08-12
Launch site
AFWTR
Launch vehicle
Mass (kg)
RCS (m²)

Purposes: comms

External: N2YO · Heavens-Above · Gunter

§ Orbital elements

Epoch: 2026-05-25T00:39:19.703232Z

Period
95.64 min
Inclination
97.4512°
Eccentricity
0.0002101
Mean motion
15.05668754 rev/d
Perigee alt
548.0 km
Apogee alt
550.9 km
Semi-major
6,927.6 km
B*
-1.6817e-5
RAAN
266.0361°
Arg perigee
197.0826°
Mean anomaly
163.0331°
Rev number
20,753

§ Raw data

STARLINK-44391 53498U 22099AK  26145.02731138 -.00000301  00000+0 -16817-4 0  99962 53498  97.4512 266.0361 0002101 197.0826 163.0331 15.05668754207531

JSON: /api/v1/satellites/53498 · /tle

For live sub-satellite position, see the globe view (requires WebGL).

§ Visibility from observer

Set your observer location to see the next 7 days of passes ≥ 10°. The values pass through the URL so the page stays shareable.

No JS? Fill the form by hand. The geolocation button needs JavaScript.